Location: Wildlife_Club
(35.6000°N, 81.4330°W)
Time: 08:52:52
(UTC-04:00)

Vanguard 2 Rocket - Pass Details

Date: 19 June 2019
Orbit: 554 x 3326 km, 32.9° (Epoch: 18 July)

Event Time Altitude Azimuth Distance (km) Brightness Sun altitude
Rises 04:57:40 0° 282° (WNW) 6,147 10.8 -12.8°
Reaches altitude 10° 05:01:20 10° 279° (W) 5,426 10.5 -12.2°
Maximum altitude 05:18:24 57° 207° (SSW) 3,669 9.6 -9.5°
Drops below altitude 10° 05:37:34 10° 135° (SE) 5,985 11.2 -6.4°
Sets 05:41:54 0° 132° (SE) 6,784 11.5 -5.7°
